Provo, UT

4:58 AM MST on January 19, 2018 (GMT -0700)
Provo Municipal

Weather History for KPVU - October, 2011

Change the Weather History Date:

Sunday, October 2, 2011

  Actual Average Record
Temperature  
Mean Temperature 68 °F -  
Max Temperature 80 °F 69 °F 82 °F (1992)
Min Temperature 55 °F 42 °F 30 °F (1999)
Cooling Degree Days 2    
Growing Degree Days 18 (Base 50)    
Moisture  
Dew Point 45 °F    
Average Humidity 52    
Maximum Humidity 67    
Minimum Humidity 23    
Precipitation  
Precipitation 0.00 in - - ()
Sea Level Pressure  
Sea Level Pressure 30.13 in    
Wind  
Wind Speed 6 mph (SE)    
Max Wind Speed 10 mph    
Max Gust Speed -    
Visibility 12 miles    
Events      
Averages and records for this station are not official NWS values.
T = Trace of Precipitation, MM = Missing Value Source: NWS Daily Summary

Daily Weather History Graph

Daily Weather History Graph

Search for Another Location

Airport or City:

Trip Planner

Search our weather history database for the weather conditions in past years. The results will help you decide how hot, cold, wet, or windy it might be!

Date:

Astronomy

Oct. 02, 2011 Rise Set
Actual Time 7:24 AM MDT 7:07 PM MDT
Civil Twilight 6:56 AM MDT 7:34 PM MDT
Nautical Twilight 6:25 AM MDT 8:06 PM MDT
Astronomical Twilight 5:53 AM MDT 8:38 PM MDT
Moon 1:34 PM MDT (10/2) 11:09 PM MDT (10/2)
Length of Visible Light 12h 37m
Length of Day
11h 43m
Waxing Crescent, 35% of the Moon is Illuminated
Oct 2
Waxing Crescent
Oct 3
First Quarter
Oct 11
Full
Oct 19
Last Quarter
Oct 26
New

Hourly Weather History & Observations

Time (MDT) Temp. Dew Point Humidity Pressure Visibility Wind Dir Wind Speed Gust Speed Precip Events Conditions
12:15 AM 64.4 °F 46.4 °F 52% 30.13 in 10.0 mi SE 6.9 mph - N/A   Mostly Cloudy
12:35 AM 62.6 °F 46.4 °F 55% 30.12 in 10.0 mi East 4.6 mph - N/A   Scattered Clouds
12:55 AM 62.6 °F 46.4 °F 55% 30.12 in 10.0 mi Calm Calm - N/A   Clear
1:15 AM 60.8 °F 48.2 °F 63% 30.12 in 10.0 mi SSE 5.8 mph - N/A   Clear
1:35 AM 60.8 °F 46.4 °F 59% 30.13 in 10.0 mi SSE 8.1 mph - N/A   Clear
1:55 AM 60.8 °F 44.6 °F 55% 30.13 in 10.0 mi SSE 9.2 mph - N/A   Clear
2:15 AM 62.6 °F 46.4 °F 55% 30.13 in 10.0 mi SE 8.1 mph - N/A   Clear
2:35 AM 62.6 °F 44.6 °F 52% 30.14 in 10.0 mi ESE 9.2 mph - N/A   Clear
2:55 AM 59.0 °F 46.4 °F 63% 30.14 in 10.0 mi SE 5.8 mph - N/A   Clear
3:35 AM 60.8 °F 44.6 °F 55% 30.13 in 10.0 mi South 4.6 mph - N/A   Clear
3:55 AM 55.4 °F 44.6 °F 67% 30.13 in 10.0 mi South 6.9 mph - N/A   Clear
4:15 AM 57.2 °F 46.4 °F 67% 30.13 in 10.0 mi SSE 9.2 mph - N/A   Clear
4:35 AM 57.2 °F 44.6 °F 63% 30.13 in 10.0 mi SE 10.4 mph - N/A   Clear
4:55 AM 60.8 °F 46.4 °F 59% 30.13 in 10.0 mi ESE 10.4 mph - N/A   Clear
5:15 AM 59.0 °F 46.4 °F 63% 30.14 in 10.0 mi SE 10.4 mph - N/A   Clear
5:35 AM 55.4 °F 44.6 °F 67% 30.14 in 10.0 mi East 4.6 mph - N/A   Clear
5:55 AM 55.4 °F 42.8 °F 63% 30.14 in 10.0 mi East 6.9 mph - N/A   Clear
6:15 AM 55.4 °F 44.6 °F 67% 30.14 in 10.0 mi Calm Calm - N/A   Clear
6:35 AM 55.4 °F 44.6 °F 67% 30.15 in 10.0 mi SE 5.8 mph - N/A   Clear
6:52 AM 57.2 °F 46.4 °F 67% 30.15 in 15.0 mi Calm Calm - N/A   Scattered Clouds
6:55 AM 57.2 °F 46.4 °F 67% 30.15 in 10.0 mi East 4.6 mph - N/A   Clear
7:47 AM 55.4 °F 44.6 °F 67% 30.16 in 15.0 mi ESE 6.9 mph - N/A   Scattered Clouds
8:47 AM 60.8 °F 44.6 °F 55% 30.17 in 15.0 mi ESE 10.4 mph - N/A   Scattered Clouds
9:47 AM 64.4 °F 46.4 °F 52% 30.19 in 15.0 mi ESE 5.8 mph - N/A   Scattered Clouds
10:59 AM 71.6 °F 46.4 °F 41% 30.19 in 15.0 mi Calm Calm - N/A   Scattered Clouds
11:57 AM 75.2 °F 44.6 °F 34% 30.19 in 15.0 mi Variable 4.6 mph - N/A   Scattered Clouds
12:47 PM 78.8 °F 44.6 °F 30% 30.17 in 15.0 mi ESE 5.8 mph - N/A   Scattered Clouds
1:47 PM 78.8 °F 44.6 °F 30% 30.14 in 15.0 mi ESE 4.6 mph - N/A   Mostly Cloudy
2:51 PM 80.6 °F 41.0 °F 24% 30.12 in 15.0 mi Calm Calm - N/A   Mostly Cloudy
4:47 PM 80.6 °F 39.2 °F 23% 30.09 in 15.0 mi Variable 4.6 mph - N/A   Mostly Cloudy
5:47 PM 80.6 °F 39.2 °F 23% 30.08 in 15.0 mi Calm Calm - N/A   Mostly Cloudy
6:47 PM 73.4 °F 42.8 °F 33% 30.07 in 15.0 mi Variable 4.6 mph - N/A   Mostly Cloudy
7:47 PM 68.0 °F 44.6 °F 43% 30.08 in 15.0 mi ESE 4.6 mph - N/A   Mostly Cloudy
8:47 PM 64.4 °F 46.4 °F 52% 30.09 in 15.0 mi ESE 6.9 mph - N/A   Mostly Cloudy
9:15 PM 62.6 °F 46.4 °F 55% 30.09 in 10.0 mi ESE 4.6 mph - N/A   Clear
9:35 PM 64.4 °F 44.6 °F 49% 30.10 in 10.0 mi SE 5.8 mph - N/A   Clear
9:55 PM 62.6 °F 42.8 °F 48% 30.10 in 10.0 mi ESE 4.6 mph - N/A   Clear
10:15 PM 62.6 °F 42.8 °F 48% 30.10 in 10.0 mi East 4.6 mph - N/A   Clear
10:35 PM 64.4 °F 42.8 °F 45% 30.11 in 10.0 mi East 4.6 mph - N/A   Clear
10:55 PM 64.4 °F 44.6 °F 49% 30.11 in 10.0 mi SSE 6.9 mph - N/A   Clear
11:35 PM 64.4 °F 44.6 °F 49% 30.12 in 10.0 mi East 8.1 mph - N/A   Clear
11:55 PM 64.4 °F 42.8 °F 45% 30.12 in 10.0 mi ESE 9.2 mph - N/A   Clear